TimeEST,TemperatureF,Dew PointF,Humidity,Sea Level PressureIn,VisibilityMPH,Wind Direction,Wind SpeedMPH,Gust SpeedMPH,PrecipitationIn,Events,Conditions,WindDirDegrees,DateUTC
12:53 AM,39.0,34.0,82,30.10,9.0,NNW,5.8,-,0.02,Rain,Light Rain,330,2014-02-03 05:53:00
1:53 AM,39.0,34.0,82,30.11,5.0,North,6.9,-,0.05,Rain,Light Rain,350,2014-02-03 06:53:00
2:28 AM,37.9,34.0,86,30.10,3.0,North,6.9,-,0.07,Rain,Rain,350,2014-02-03 07:28:00
2:53 AM,37.9,34.0,86,30.09,4.0,North,8.1,-,0.12,Rain,Light Rain,360,2014-02-03 07:53:00
3:10 AM,37.9,34.0,86,30.07,4.0,North,9.2,-,0.02,Rain,Light Rain,360,2014-02-03 08:10:00
3:30 AM,37.0,34.0,89,30.06,4.0,North,9.2,-,0.06,Rain,Rain,360,2014-02-03 08:30:00
3:33 AM,37.0,34.0,89,30.06,4.0,North,10.4,-,0.07,Rain,Rain,10,2014-02-03 08:33:00
3:40 AM,37.0,34.0,89,30.06,4.0,North,10.4,-,0.08,Rain,Light Rain,10,2014-02-03 08:40:00
3:53 AM,37.0,34.0,89,30.07,4.0,North,6.9,-,0.10,Rain,Light Rain,360,2014-02-03 08:53:00
4:53 AM,35.1,32.0,89,30.08,4.0,North,8.1,-,0.12,Rain,Light Rain,10,2014-02-03 09:53:00
5:06 AM,35.1,32.0,89,30.07,5.0,North,8.1,-,0.01,Rain,Light Rain,10,2014-02-03 10:06:00
5:21 AM,34.0,30.9,89,30.06,2.0,North,8.1,-,0.02,Snow,Light Snow,10,2014-02-03 10:21:00
5:31 AM,34.0,30.9,89,30.06,1.5,North,11.5,-,0.03,Snow,Light Snow,10,2014-02-03 10:31:00
5:46 AM,34.0,30.9,89,30.06,1.2,North,10.4,-,0.03,Snow,Light Snow,10,2014-02-03 10:46:00
5:53 AM,34.0,30.9,89,30.07,1.0,North,10.4,-,0.03,Snow,Light Snow,10,2014-02-03 10:53:00
6:07 AM,34.0,30.9,89,30.06,0.8,North,9.2,-,0.01,Snow,Light Snow,10,2014-02-03 11:07:00
6:53 AM,34.0,30.9,89,30.06,0.8,North,6.9,-,0.02,Snow,Light Snow,10,2014-02-03 11:53:00
7:24 AM,34.0,30.9,89,30.06,1.0,North,8.1,-,0.01,Snow,Light Snow,360,2014-02-03 12:24:00
7:48 AM,33.8,30.2,87,30.07,0.5,North,10.4,-,0.02,Fog-Snow,Snow,350,2014-02-03 12:48:00
7:53 AM,34.0,30.9,89,30.09,0.5,North,8.1,-,0.02,Fog-Snow,Snow,360,2014-02-03 12:53:00
8:22 AM,34.0,30.9,89,30.11,0.5,North,9.2,-,0.01,Fog-Snow,Snow,350,2014-02-03 13:22:00
8:37 AM,34.0,30.9,89,30.10,0.8,North,10.4,-,0.01,Snow,Light Snow,360,2014-02-03 13:37:00
8:53 AM,34.0,30.9,89,30.11,0.5,North,8.1,-,0.02,Fog-Snow,Snow,10,2014-02-03 13:53:00
9:02 AM,34.0,30.9,89,30.09,0.2,North,6.9,-,0.00,Fog-Snow,Snow,10,2014-02-03 14:02:00
9:18 AM,34.0,30.9,89,30.08,0.5,North,6.9,-,0.01,Fog-Snow,Snow,10,2014-02-03 14:18:00
9:51 AM,33.8,30.2,87,30.10,1.5,North,9.2,-,0.02,Snow,Light Snow,350,2014-02-03 14:51:00
9:53 AM,34.0,30.9,89,30.11,1.8,North,9.2,-,0.02,Snow,Light Snow,360,2014-02-03 14:53:00
10:01 AM,34.0,30.9,89,30.10,2.5,North,9.2,-,0.01,Snow,Light Snow,350,2014-02-03 15:01:00
10:10 AM,34.0,30.9,89,30.10,3.0,North,12.7,-,0.01,Snow,Light Snow,350,2014-02-03 15:10:00
10:16 AM,34.0,30.9,89,30.11,1.8,North,10.4,-,0.02,Snow,Light Snow,350,2014-02-03 15:16:00
10:33 AM,34.0,30.9,89,30.13,1.2,NNW,12.7,-,0.02,Snow,Light Snow,340,2014-02-03 15:33:00
10:53 AM,34.0,30.9,89,30.14,0.8,North,9.2,-,0.04,Snow,Light Snow,360,2014-02-03 15:53:00
11:09 AM,34.0,30.9,89,30.12,1.0,North,9.2,-,0.00,Snow,Light Snow,360,2014-02-03 16:09:00
11:48 AM,35.6,30.2,81,30.13,2.5,North,8.1,-,0.05,Snow,Light Snow,360,2014-02-03 16:48:00
11:53 AM,35.1,30.9,85,30.14,3.0,North,8.1,-,0.05,Snow,Light Snow,360,2014-02-03 16:53:00
12:38 PM,35.1,30.0,82,30.11,4.0,North,15.0,-,0.08,,Haze,350,2014-02-03 17:38:00
12:53 PM,36.0,30.0,79,30.13,6.0,North,11.5,-,0.13,,Haze,360,2014-02-03 17:53:00
1:14 PM,35.1,30.0,82,30.11,6.0,NNE,8.1,-,0.05,,Haze,30,2014-02-03 18:14:00
1:53 PM,37.0,30.9,79,30.13,10.0,North,9.2,-,0.05,,Overcast,360,2014-02-03 18:53:00
2:15 PM,37.0,30.0,76,30.13,10.0,North,11.5,18.4,N/A,,Overcast,350,2014-02-03 19:15:00
2:44 PM,37.0,30.9,79,30.14,10.0,North,6.9,-,N/A,,Overcast,360,2014-02-03 19:44:00
2:53 PM,37.0,30.0,76,30.16,10.0,North,8.1,-,N/A,,Overcast,350,2014-02-03 19:53:00
3:01 PM,37.0,30.9,79,30.15,10.0,North,9.2,-,N/A,,Overcast,360,2014-02-03 20:01:00
3:18 PM,37.0,30.0,76,30.15,10.0,North,8.1,-,N/A,,Overcast,10,2014-02-03 20:18:00
3:53 PM,37.9,30.0,73,30.19,10.0,North,6.9,-,N/A,,Overcast,350,2014-02-03 20:53:00
4:53 PM,37.0,28.9,73,30.20,10.0,North,8.1,-,N/A,,Overcast,360,2014-02-03 21:53:00
5:53 PM,36.0,28.9,76,30.25,10.0,North,5.8,-,N/A,,Overcast,10,2014-02-03 22:53:00
6:04 PM,36.0,28.9,76,30.23,10.0,North,5.8,-,N/A,,Overcast,10,2014-02-03 23:04:00
6:14 PM,36.0,28.9,76,30.23,10.0,NNE,8.1,-,N/A,,Overcast,20,2014-02-03 23:14:00
6:53 PM,35.1,28.9,78,30.25,10.0,NE,4.6,-,N/A,,Overcast,50,2014-02-03 23:53:00
7:53 PM,35.1,28.9,78,30.30,10.0,NNW,4.6,-,N/A,,Overcast,340,2014-02-04 00:53:00
8:53 PM,35.1,28.9,78,30.30,10.0,North,8.1,-,N/A,,Overcast,360,2014-02-04 01:53:00
9:53 PM,35.1,27.0,72,30.32,10.0,North,10.4,-,N/A,,Overcast,350,2014-02-04 02:53:00
10:53 PM,33.1,24.1,70,30.34,9.0,North,8.1,-,N/A,,Partly Cloudy,350,2014-02-04 03:53:00
11:53 PM,32.0,21.9,66,30.35,10.0,North,3.5,-,N/A,,Mostly Cloudy,350,2014-02-04 04:53:00